#timestamp,LO_Frequency,Hit,StdDev 
1508961615.4,286047005.4,N
1508961635.2,286047011.1,Y
1508961655.0,286047014.8,P
1508961655.9,286047014.8,N
1508961675.8,286047018.7,P
1508961695.6,286047021.5,Y
1508961715.4,286047007.8,P
1508961735.3,286047008.1,P
1508961755.1,286047009.0,P
1508961775.9,286047008.3,Y
1508961795.7,286047000.2,P
1508961815.5,286047001.7,N
1508961835.4,286047001.9,N
1508961855.2,286047005.9,N
1508961875.0,286047005.1,N
1508961875.9,286047005.1,N
1508961895.8,286047002.8,N
1508961915.6,286047001.5,N
1508961935.4,286047001.8,N
1508961955.3,286047005.7,N
1508961975.1,286047003.8,N
1508961976.0,286047003.8,N
1508961995.8,286047006.1,N
1508962015.7,286047008.7,Y
1508962035.5,286047003.0,P
1508962055.3,286047007.1,P
1508962075.2,286047004.2,N
1508962095.9,286046998.9,N
1508962115.7,286046999.4,N
1508962135.6,286047001.2,N
1508962155.4,286047001.1,N
1508962175.2,286046998.2,N
1508962195.1,286046997.6,N
1508962196.0,286046997.6,N
1508962215.8,286046996.3,N
1508962235.6,286046997.6,N
1508962255.5,286046995.7,N
1508962275.3,286046996.2,N
1508962295.1,286046995.6,N
1508962315.9,286046999.1,N
1508962335.7,286046996.6,N
1508962355.5,286046993.8,N
1508962375.4,286046995.0,N
1508962395.2,286046994.8,N
1508962415.0,286046992.3,N
1508962415.9,286046992.3,N
1508962435.8,286046992.8,N
1508962455.6,286046988.8,N
1508962475.4,286046993.0,N
1508962495.3,286046991.9,N
1508962515.1,286046992.7,N
1508962535.8,286046993.6,N
1508962555.7,286046989.2,N
1508962575.5,286046985.7,Y
1508962595.4,286046989.3,P
1508962615.2,286046986.6,P
1508962635.0,286046982.3,P
1508962635.9,286046982.3,Y
1508962655.8,286046991.5,P
1508962675.6,286046989.1,P
1508962695.4,286046987.2,P
1508962715.3,286046988.0,Y
1508962735.1,286046997.5,P
1508962755.8,286046996.3,N
1508962775.7,286046995.8,N
1508962795.5,286046995.4,N
1508962815.4,286046995.8,N
1508962835.2,286046995.7,N
1508962855.0,286046994.5,N
1508962855.9,286046994.5,N
1508962875.8,286046993.5,N
1508962895.6,286046992.0,Y
1508962915.4,286046997.0,P
1508962935.3,286046999.5,N
1508962955.1,286046994.9,N
1508962956.0,286046994.9,N
1508962975.8,286046996.1,N
1508962995.7,286046996.1,N
1508963015.5,286046996.2,N
1508963035.3,286046996.3,N
1508963055.2,286046996.0,N
1508963075.9,286046993.4,Y
1508963095.7,286046999.6,P
1508963115.6,286046996.1,N
1508963135.4,286046997.6,N
1508963155.2,286046997.3,N
1508963175.1,286046995.1,Y
1508963176.0,286046995.1,P
1508963195.8,286047000.2,N
1508963215.7,286047002.2,N
1508963235.5,286047000.0,N
1508963255.3,286046997.2,N
1508963275.2,286046993.4,N
1508963295.9,286046996.7,N
1508963315.7,286046998.4,N
1508963335.6,286047001.0,N
1508963355.4,286046999.3,N
1508963375.2,286046999.0,N
1508963395.1,286046998.9,N
1508963396.0,286046998.9,N
1508963415.8,286046999.3,N
1508963435.6,286046999.5,N
1508963455.5,286046999.4,N
1508963475.3,286046993.6,Y
1508963495.1,286047003.6,P
1508963515.9,286047007.9,P
1508963535.7,286047015.6,P
1508963555.5,286047018.7,N
1508963575.4,286047017.6,N
1508963595.2,286047023.2,Y
1508963615.0,286047014.1,P
1508963616.0,286047014.1,P
1508963635.8,286047017.8,P
1508963655.6,286047020.4,Y
1508963675.5,286047007.4,P
1508963695.3,286047007.3,N
1508963715.1,286047007.4,N
1508963735.9,286047009.0,Y
1508963755.7,286047002.7,P
1508963775.5,286047007.3,N
1508963795.4,286047005.6,N
1508963815.2,286047001.4,N
1508963835.0,286047003.8,N
1508963835.9,286047003.8,N
1508963855.8,286047006.0,N
1508963875.6,286047006.4,N
1508963895.4,286047010.4,Y
1508963915.3,286047007.5,P
1508963935.1,286047004.8,P
1508963955.9,286047003.3,N
1508963975.7,286047001.3,N
1508963995.5,286047004.4,N
1508964015.4,286047005.8,Y
1508964035.2,286047000.8,P
1508964055.0,286046998.7,N
1508964055.9,286046998.7,N
1508964075.8,286046998.8,N
1508964095.6,286046993.9,N
1508964115.4,286046994.1,N
1508964135.3,286046992.0,N
1508964155.1,286046991.2,N
1508964175.8,286046991.6,N
1508964195.7,286046990.7,N
1508964215.5,286046990.8,N
1508964235.3,286046990.8,N
1508964255.2,286046992.3,N
1508964275.9,286046988.5,N
1508964295.7,286046988.8,N
1508964315.6,286046987.5,N
1508964335.4,286046986.7,N
1508964355.2,286046986.5,N
1508964375.1,286046988.2,N
1508964376.0,286046988.2,N
1508964395.8,286046986.9,N
1508964415.6,286046987.2,N
1508964435.5,286046984.2,Y
1508964455.3,286046988.6,P
1508964475.1,286046990.1,P
1508964495.9,286046990.0,P
1508964515.7,286046984.1,Y
1508964535.6,286046992.1,P
1508964555.4,286046992.8,P
1508964575.2,286046992.3,P
1508964595.1,286046993.2,Y
1508964596.0,286046993.2,P
1508964615.8,286046999.1,N
1508964635.6,286046997.3,N
1508964655.5,286046994.7,N
1508964675.3,286046991.2,Y
1508964695.1,286046995.5,P
1508964715.9,286046997.7,P
1508964735.7,286046993.5,P
1508964755.6,286046993.6,Y
1508964775.4,286046999.0,P
1508964795.2,286047001.5,N
1508964815.1,286047002.3,N
1508964816.0,286047002.3,N
1508964835.8,286046999.9,N
1508964855.6,286046998.2,N
1508964875.5,286046998.5,N
1508964895.3,286046997.0,N
1508964915.1,286046997.1,N
1508964935.9,286046997.8,N
1508964955.7,286046998.0,N
1508964975.5,286046995.3,N
1508964995.4,286046997.7,N
1508965015.2,286046997.8,N
1508965035.0,286046994.9,N
1508965035.9,286046994.9,N
1508965055.8,286046993.6,N
1508965075.6,286046996.2,N
1508965095.4,286046997.9,N
1508965115.3,286046995.7,N
1508965135.1,286046996.0,N
1508965136.0,286046996.0,N
1508965155.8,286046993.8,N
1508965175.7,286046993.8,N
1508965195.5,286046994.4,N
